Date String (YYYY-MM-DD hh:mm:ss) UTC,Instrument flags,absolute air pressure of the measurement (hPa),sample flow rate (lpm),inlet stack bypass flow (lpm),air temperature of the measurement (°C),ambient temperature measured by the external sensor (°C),aerosol sample conditioner tube jacket temperature (°C),OPC LED temperature (°C),internal box temperature (°C),relative humidity of the measurement (%),span deviation,mass concentration of particles derived from Lorenz-Mie calculation of OPC scattering (μg/m³),mass concentration of particles derived from Lorenz-Mie calculation of OPC scattering (μg/m³),mass concentration of particles derived from Lorenz-Mie calculation of OPC scattering (μg/m³)
DateTimeUTC,F1_M11,P_M11,Q1_M11,Q2_M11,T1_M11,T2_M11,T3_M11,T4_M11,T5_M11,U1_M11,ZSPAN_M11,X0_M11,X2_M11,X1_M11
2023-12-07 14:00:00,SystemResetWarning,0820.1,4.99,000.00,023.6,022.6,000.0,031.8,024.9,9.7,0000.0,0001.36,0000.79,0000.55
2023-12-07 14:01:00,SystemResetWarning,0820.1,5.00,000.00,023.6,022.7,000.0,031.8,025.0,9.8,0000.0,0001.34,0000.77,0000.55
2023-12-07 14:02:00,SystemResetWarning,0820.0,5.02,000.00,023.6,022.7,000.0,031.9,025.0,9.9,0000.0,0001.33,0000.75,0000.54
2023-12-07 14:03:00,SystemResetWarning,0820.0,5.00,000.00,023.6,022.7,000.0,031.9,024.9,9.7,0000.0,0001.37,0000.73,0000.54
2023-12-07 14:04:00,SystemResetWarning,0820.1,4.99,000.00,023.6,022.7,000.0,031.9,024.9,9.7,0000.0,0001.41,0000.75,0000.54
2023-12-07 14:05:00,SystemResetWarning,0820.1,5.00,000.00,023.6,022.7,000.0,031.9,024.9,9.8,0000.0,0001.36,0000.74,0000.52
2023-12-07 14:06:00,SystemResetWarning,0820.2,5.00,000.00,023.6,022.7,000.0,031.9,024.9,9.8,0000.0,0001.28,0000.70,0000.51
2023-12-07 14:07:00,SystemResetWarning,0820.0,5.00,000.00,023.6,022.7,000.0,031.9,024.9,9.7,0000.0,0001.25,0000.69,0000.51
2023-12-07 14:08:00,SystemResetWarning,0820.0,5.00,000.00,023.6,022.7,000.0,031.9,024.9,9.7,0000.0,0001.14,0000.65,0000.49
2023-12-07 14:09:00,SystemResetWarning,0819.9,5.01,000.00,023.6,022.7,000.0,031.9,024.9,9.7,0000.0,0000.91,0000.59,0000.48
2023-12-07 14:10:00,SystemResetWarning,0819.9,5.00,000.00,023.6,022.7,000.0,031.9,025.0,9.8,0000.0,0002.17,0000.59,0000.47
2023-12-07 14:11:00,SystemResetWarning,0819.9,5.00,000.00,023.6,022.7,000.0,031.9,025.0,10.1,0000.0,0002.29,0000.58,0000.46
2023-12-07 14:12:00,SystemResetWarning,0820.0,4.99,000.00,023.6,022.7,000.0,031.9,025.0,9.8,0000.0,0002.29,0000.57,0000.45
2023-12-07 14:13:00,SystemResetWarning,0820.1,5.00,000.00,023.6,022.7,000.0,031.9,025.0,9.7,0000.0,0002.31,0000.58,0000.46
2023-12-07 14:14:00,SystemResetWarning,0820.0,5.00,000.00,023.6,022.7,000.0,031.9,025.0,10.1,0000.0,0002.22,0000.58,0000.45
2023-12-07 14:15:00,SystemResetWarning,0820.0,5.00,000.00,023.6,022.7,000.0,031.9,025.0,10.1,0000.0,0002.21,0000.57,0000.45
2023-12-07 14:16:00,SystemResetWarning,0819.8,4.99,000.00,023.6,022.7,000.0,031.9,025.0,10.1,0000.0,0002.27,0000.56,0000.45
2023-12-07 14:17:00,SystemResetWarning,0819.8,5.00,000.00,023.6,022.7,000.0,031.9,025.0,10.3,0000.0,0002.73,0000.56,0000.45
2023-12-07 14:18:00,SystemResetWarning,0820.0,5.00,000.00,023.6,022.8,000.0,031.9,025.0,10.3,0000.0,0002.78,0000.57,0000.46
2023-12-07 14:19:00,SystemResetWarning,0819.6,5.00,000.00,023.6,022.8,000.0,031.9,025.0,10.5,0000.0,0002.80,0000.58,0000.46
2023-12-07 14:20:00,SystemResetWarning,0820.0,5.00,000.00,023.6,022.8,000.0,031.9,024.9,10.6,0000.0,0002.85,0000.59,0000.46
2023-12-07 14:21:00,SystemResetWarning,0819.9,5.00,000.00,023.6,022.8,000.0,031.9,025.0,10.6,0000.0,0001.96,0000.60,0000.46
2023-12-07 14:22:00,SystemResetWarning,0819.8,5.02,000.00,023.6,022.8,000.0,031.9,025.0,10.4,0000.0,0001.53,0000.60,0000.47
2023-12-07 14:23:00,SystemResetWarning,0819.7,4.99,000.00,023.6,022.8,000.0,031.9,025.0,10.3,0000.0,0001.56,0000.61,0000.47
2023-12-07 14:24:00,SystemResetWarning,0819.8,4.99,000.00,023.6,022.7,000.0,031.9,025.0,10.3,0000.0,0001.55,0000.61,0000.47
2023-12-07 14:25:00,SystemResetWarning,0820.1,5.01,000.00,023.6,022.7,000.0,031.9,025.0,10.2,0000.0,0001.56,0000.61,0000.47
2023-12-07 14:26:00,SystemResetWarning,0819.9,5.01,000.00,023.6,022.7,000.0,031.9,025.0,10.1,0000.0,0001.61,0000.62,0000.47
2023-12-07 14:27:00,SystemResetWarning,0819.9,4.99,000.00,023.6,022.7,000.0,031.9,025.0,10.3,0000.0,0001.70,0000.64,0000.48
2023-12-07 14:28:00,SystemResetWarning,0819.8,4.99,000.00,023.6,022.7,000.0,031.9,025.0,10.1,0000.0,0001.19,0000.66,0000.50
2023-12-07 14:29:00,SystemResetWarning,0819.9,5.01,000.00,023.6,022.7,000.0,031.9,025.0,10.3,0000.0,0001.21,0000.68,0000.51
2023-12-07 14:30:00,SystemResetWarning,0819.9,5.01,000.00,023.6,022.7,000.0,031.9,025.0,10.3,0000.0,0001.31,0000.72,0000.53
2023-12-07 14:31:00,SystemResetWarning,0819.7,5.01,000.00,023.6,022.7,000.0,031.9,025.0,10.4,0000.0,0001.42,0000.75,0000.55
2023-12-07 14:32:00,SystemResetWarning,0819.9,4.99,000.00,023.6,022.7,000.0,031.9,025.0,10.5,0000.0,0001.38,0000.74,0000.55
2023-12-07 14:33:00,SystemResetWarning,0820.1,5.00,000.00,023.6,022.7,000.0,031.9,025.0,10.5,0000.0,0001.39,0000.74,0000.56
2023-12-07 14:34:00,SystemResetWarning,0819.9,5.01,000.00,023.6,022.7,000.0,031.9,025.0,10.5,0000.0,0001.44,0000.75,0000.57
2023-12-07 14:35:00,SystemResetWarning,0820.1,5.00,000.00,023.6,022.7,000.0,031.9,025.0,10.5,0000.0,0001.50,0000.77,0000.57
2023-12-07 14:36:00,SystemResetWarning,0820.0,5.01,000.00,023.6,022.7,000.0,031.9,025.0,10.3,0000.0,0001.75,0000.77,0000.57
2023-12-07 14:37:00,SystemResetWarning,0820.0,5.00,000.00,023.6,022.7,000.0,032.0,025.0,10.1,0000.0,0002.60,0000.76,0000.57
2023-12-07 14:38:00,SystemResetWarning,0820.1,5.00,000.00,023.6,022.7,000.0,032.0,025.0,10.1,0000.0,0002.59,0000.74,0000.57
2023-12-07 14:39:00,SystemResetWarning,0819.9,5.00,000.00,023.6,022.7,000.0,032.0,025.0,10.3,0000.0,0002.58,0000.73,0000.56
2023-12-07 14:40:00,SystemResetWarning,0819.8,4.99,000.00,023.6,022.7,000.0,032.0,025.0,10.3,0000.0,0003.69,0000.74,0000.55
2023-12-07 14:41:00,SystemResetWarning,0819.8,4.99,000.00,023.6,022.7,000.0,032.0,024.9,10.6,0000.0,0003.94,0000.69,0000.53
2023-12-07 14:42:00,SystemResetWarning,0819.9,5.00,000.00,023.6,022.7,000.0,032.0,024.9,10.7,0000.0,0003.78,0000.67,0000.52
2023-12-07 14:43:00,SystemResetWarning,0819.9,5.00,000.00,023.6,022.7,000.0,032.0,024.9,10.6,0000.0,0003.85,0000.67,0000.53
2023-12-07 14:44:00,SystemResetWarning,0819.9,4.99,000.00,023.6,022.7,000.0,032.0,024.9,10.7,0000.0,0003.96,0000.69,0000.52
2023-12-07 14:45:00,SystemResetWarning,0819.8,5.01,000.00,023.6,022.7,000.0,032.0,024.9,10.5,0000.0,0005.78,0000.67,0000.52
2023-12-07 14:46:00,SystemResetWarning,0819.7,5.00,000.00,023.6,022.7,000.0,032.0,024.9,10.7,0000.0,0006.49,0000.67,0000.52
2023-12-07 14:47:00,SystemResetWarning,0819.5,5.00,000.00,023.6,022.6,000.0,032.0,024.9,10.8,0000.0,0006.35,0000.68,0000.51
2023-12-07 14:48:00,SystemResetWarning,0819.5,4.99,000.00,023.6,022.6,000.0,032.0,024.9,10.9,0000.0,0005.54,0000.70,0000.51
2023-12-07 14:49:00,SystemResetWarning,0819.9,5.00,000.00,023.6,022.6,000.0,032.0,024.9,10.9,0000.0,0005.52,0000.72,0000.51
2023-12-07 14:50:00,SystemResetWarning,0820.0,5.00,000.00,023.6,022.6,000.0,032.0,024.9,10.9,0000.0,0005.55,0000.73,0000.51
2023-12-07 14:51:00,SystemResetWarning,0820.0,5.00,000.00,023.6,022.6,000.0,031.9,024.9,11.0,0000.0,0004.46,0000.72,0000.51
2023-12-07 14:52:00,SystemResetWarning,0819.9,5.01,000.00,023.6,022.7,000.0,032.0,024.9,11.0,0000.0,0004.13,0000.76,0000.51
2023-12-07 14:53:00,SystemResetWarning,0819.8,5.00,000.00,023.6,022.7,000.0,032.0,024.9,11.1,0000.0,0004.13,0000.75,0000.51
2023-12-07 14:54:00,SystemResetWarning,0819.8,4.99,000.00,023.6,022.6,000.0,031.9,024.9,11.2,0000.0,0004.02,0000.73,0000.51
2023-12-07 14:55:00,SystemResetWarning,0819.9,4.99,000.00,023.6,022.6,000.0,031.9,024.9,11.3,0000.0,0003.93,0000.71,0000.51
2023-12-07 14:56:00,SystemResetWarning,0819.9,5.01,000.00,023.6,022.6,000.0,032.0,024.9,11.2,0000.0,0002.94,0000.73,0000.51
2023-12-07 14:57:00,SystemResetWarning,0819.8,5.01,000.00,023.6,022.6,000.0,031.9,024.9,11.2,0000.0,0001.59,0000.74,0000.52
2023-12-07 14:58:00,SystemResetWarning,0819.9,5.00,000.00,023.6,022.6,000.0,031.9,024.9,11.2,0000.0,0001.22,0000.72,0000.52
2023-12-07 14:59:00,SystemResetWarning,0819.8,4.98,000.00,023.6,022.6,000.0,031.9,024.9,11.4,0000.0,0001.24,0000.71,0000.53
